User: anonymous   Login
Location: Nebraska Star Party
(42.6000°N, 100.8833°W)
Time: 19:18:21
(UTC-05:00)
Language:

Iridium 37 - Orbit

View from above orbital plane
View from above orbital plane
View from above satellite
View from above satellite

Ground track
Ground track

The orbit data is extracted from the following two-line orbital elements,

1 24968U 97056D   15244.47179703  .00000005  00000-0 -52838-5 0  9997
2 24968  86.3944 232.4966 0002367  88.2702 271.8765 14.34216677938694
Epoch (UTC): 01 September 2015 11:19:23
Eccentricity: 0.0002367
inclination: 86.3944°
perigee height: 776 km
apogee height: 779 km
right ascension of ascending node: 232.4966°
argument of perigee: 88.2702°
revolutions per day: 14.34216677
mean anomaly at epoch: 271.8765°
orbit number at epoch: 93869

The dashed part of the orbit path shows where the satellite is in the earth's shadow,  

DLR